[[{"header":{"parameterUnit":"m.s-1","parameterCategory":1,"la1":30.2991,"la2":30.254,"lo1":-89.0895,"lo2":-89.0444,"dy":0.0017,"dx":0.0017,"nx":28,"ny":28,"refTime":"2024-07-28T03:00:00:Z","depth":0,"parameterNumber":2,"parameterNumberName":"U-component_of_WINDS"},"data":[0,0,0,0,0,0,0,0,0,0,0,0,0,0,0,0,0,0,0,0,0,0,0,0,0,0,0,0,0,0,0,0,0,0,0,0,0,0,0,0,0,0,0,0,0,0,0,0,0,0,0,0,0,0,0,0,0,0,2.6363,2.6363,0,2.6361,2.6361,2.6361,2.6343,2.6342,2.6342,2.6342,2.6341,2.6341,2.6342,0,0,0,0,0,0,0,0,0,0,0,0,0,2.6353,2.6354,2.6363,2.6363,2.6363,2.6361,2.6361,2.6361,2.6343,2.6342,2.6342,2.6341,2.6341,2.6341,2.6342,0,0,0,0,0,0,0,0,0,0,0,0,0,2.6355,2.6354,2.6363,2.6354,2.6353,2.6361,2.6361,2.6361,2.6343,2.6342,2.6342,2.6341,2.6341,2.6341,2.6342,2.6359,0,0,2.6344,2.6344,0,0,0,0,0,0,0,0,2.6355,2.6356,2.6355,2.6355,2.6354,2.6351,2.6357,2.636,2.6343,2.6347,2.6342,2.6341,2.6345,2.6345,2.6346,2.6359,2.6359,2.6344,2.6344,2.6344,2.6345,0,0,0,0,0,0,0,2.6355,2.6356,2.6362,2.6355,2.6354,2.635,2.635,2.6358,2.635,2.6347,2.6345,2.6345,2.6345,2.6346,2.6346,2.6359,2.6344,2.6344,2.6345,2.6345,2.6386,2.6386,0,0,0,0,0,0,2.6356,2.6356,2.6362,2.6362,2.6353,2.6351,2.635,2.6353,2.635,2.6349,2.6346,2.6344,2.6345,2.6346,2.6346,2.6366,2.6344,2.6345,2.6345,2.6385,2.6386,2.6387,0,0,0,0,0,0,2.6356,2.6357,2.6362,2.6359,2.6359,2.6352,2.6355,2.6353,2.6354,2.6349,2.6348,2.6348,2.6345,2.6345,2.6356,2.6366,2.6345,2.6346,2.6384,2.6385,2.6386,2.6406,0,0,0,0,0,0,2.6356,2.6357,2.6363,2.6359,2.6359,2.6372,2.6355,2.6354,2.6355,2.6353,2.6351,2.635,2.6344,2.6355,2.6357,2.6366,2.6346,2.6383,2.6385,2.6386,2.6405,2.6408,2.6411,0,0,0,0,0,2.6355,2.6369,2.6363,2.6364,2.6367,2.6372,2.6373,2.6365,2.6356,2.6363,2.6359,2.635,2.6364,2.6356,2.6358,2.6368,2.6383,2.6384,2.6386,2.6403,2.6407,2.6411,0,0,0,0,0,0,2.6375,2.6368,2.6362,2.6375,2.6374,2.6369,2.6377,2.6369,2.6372,2.637,2.6361,2.6361,2.6373,2.6371,2.6362,2.6384,2.6372,2.6374,2.6385,2.6389,2.6392,2.6392,2.6347,0,0,0,0,0,2.6381,2.6386,2.638,2.6392,2.6392,2.6384,2.6387,2.6381,2.638,2.638,2.6377,2.6377,2.6382,2.6385,2.6389,2.6404,2.6404,2.6412,2.6415,2.6417,2.642,2.6428,2.6431,2.6392,2.6392,2.6392,0,0,2.6394,2.639,2.6394,2.6396,2.6394,2.64,2.6384,2.6391,2.6395,2.6381,2.6391,2.6389,2.6388,2.6401,2.6407,2.6401,2.643,2.642,2.6422,2.6422,2.643,2.6434,2.6437,2.6393,2.6393,2.6393,0,0,2.6419,2.6417,2.6426,2.6425,2.6424,2.6419,2.6421,2.6417,2.6415,2.6424,2.6414,2.6419,2.6427,2.6427,2.6428,2.6453,2.6445,2.6454,2.647,2.6478,2.6481,2.6484,2.6493,2.6497,2.6456,2.6456,2.6456,0,2.6435,2.6442,2.6432,2.644,2.6441,2.6427,2.6437,2.6437,2.6437,2.6438,2.6431,2.644,2.6439,2.6452,2.6458,2.6459,2.6462,2.6455,2.6482,2.6484,2.6487,2.6495,2.6499,2.6457,2.6457,2.6457,2.6457,0,2.6462,2.6467,2.6475,2.6475,2.6477,2.6485,2.6477,2.6481,2.6474,2.647,2.648,2.6478,2.6481,2.6483,2.6478,2.6496,2.6492,2.6483,2.647,2.6492,2.65,2.6503,2.6459,2.6459,2.6458,2.6458,0,0,2.6501,2.6494,2.6497,2.6497,2.6494,2.6498,2.6506,2.6508,2.6511,2.6511,2.6518,2.6525,2.6517,2.6518,2.6512,2.6519,2.6539,2.6509,2.6509,2.6515,2.6559,2.6566,2.657,2.6533,2.6534,2.6534,2.6559,0,2.6525,2.6538,2.6529,2.6544,2.6549,2.6536,2.6543,2.6542,2.6538,2.6542,2.6538,2.6543,2.6532,2.6533,2.6539,2.6535,2.6548,2.6533,2.654,2.6541,2.6541,2.6574,2.6581,2.6605,2.6562,2.6563,2.6563,0,2.6556,2.6557,2.6572,2.6567,2.6569,2.6575,2.6577,2.658,2.6579,2.6576,2.6577,2.6569,2.6577,2.6564,2.6575,2.6565,2.6568,2.6566,2.6567,2.6568,2.6554,2.6576,2.6612,2.6616,2.6568,2.6567,2.6567,0,2.6584,2.6588,2.6598,2.6598,2.6593,2.6597,2.6596,2.6593,2.6595,2.6597,2.6598,2.66,2.6602,2.6604,2.6597,2.6588,2.6609,2.6595,2.6607,2.6607,2.6613,2.6613,2.665,2.6613,2.6613,2.6613,2.6613,0,2.6613,2.6622,2.661,2.6616,2.6626,2.6616,2.6627,2.6624,2.6622,2.6627,2.6616,2.6622,2.6612,2.6616,2.6611,2.6621,2.6622,2.662,2.6618,2.6621,2.6621,2.6623,2.6621,2.6614,2.6614,2.6614,2.6614,0,2.6645,2.6637,2.6647,2.6641,2.664,2.6648,2.6643,2.6648,2.6643,2.665,2.6651,2.6644,2.6649,2.6641,2.6646,2.6642,2.6656,2.6652,2.6656,2.6655,2.6667,2.6667,2.6707,2.6712,2.6672,2.6673,2.6673,0,2.6665,2.6672,2.6666,2.6669,2.6667,2.6671,2.6673,2.6663,2.6665,2.6664,2.667,2.6673,2.6676,2.6684,2.6679,2.6682,2.6678,2.6692,2.6679,2.6681,2.6679,2.6679,2.668,2.6695,2.6696,2.6696,2.6696,0,2.67,2.6696,2.6698,2.6699,2.6701,2.6702,2.6701,2.6704,2.6694,2.6697,2.6701,2.6703,2.6706,2.671,2.6712,2.671,2.6702,2.6701,2.6704,2.6707,2.6709,2.6708,2.6664,2.67,2.67,2.6699,2.6699,2.6699,2.6727,2.6733,2.673,2.6733,2.6731,2.6731,2.6736,2.6731,2.6734,2.6736,2.673,2.6735,2.6734,2.6735,2.6734,2.6739,2.6733,2.6737,2.6738,2.6739,2.6741,2.6708,2.6739,2.6739,2.6739,2.6739,2.6739,0,2.6763,2.676,2.6762,2.6762,2.6764,2.6755,2.6754,2.6757,2.6762,2.676,2.6762,2.6767,2.6771,2.6766,2.6768,2.6773,2.6769,2.6774,2.6774,2.6774,2.6747,2.6744,2.6777,2.6777,2.6777,2.6777,2.6777,2.6777,2.6781,2.679,2.6785,2.6793,2.679,2.6795,2.6795,2.6795,2.6794,2.68,2.6802,2.6799,2.6796,2.6798,2.6801,2.6799,2.6801,2.6808,2.6805,2.678,2.6776,2.6772,2.677,2.6808,2.6808,2.6832,2.6832,2.6832]},{"header":{"parameterUnit":"m.s-1","parameterCategory":1,"la1":30.2991,"la2":30.254,"lo1":-89.0895,"lo2":-89.0444,"dy":0.0017,"dx":0.0017,"nx":28,"ny":28,"refTime":"2024-07-28T03:00:00:Z","depth":0,"parameterNumber":3,"parameterNumberName":"V-component_of_WINDS"},"data":[0,0,0,0,0,0,0,0,0,0,0,0,0,0,0,0,0,0,0,0,0,0,0,0,0,0,0,0,0,0,0,0,0,0,0,0,0,0,0,0,0,0,0,0,0,0,0,0,0,0,0,0,0,0,0,0,0,0,0.3993,0.3993,0,0.4001,0.4001,0.4001,0.4004,0.4004,0.4004,0.4004,0.4013,0.4013,0.4013,0,0,0,0,0,0,0,0,0,0,0,0,0,0.3982,0.3982,0.3993,0.3993,0.3993,0.4001,0.4001,0.4001,0.4004,0.4004,0.4004,0.4004,0.4013,0.4013,0.4013,0,0,0,0,0,0,0,0,0,0,0,0,0,0.3988,0.3982,0.3993,0.3996,0.3996,0.4001,0.4001,0.4001,0.4004,0.4004,0.4004,0.4004,0.4013,0.4013,0.4014,0.4016,0,0,0.4015,0.4015,0,0,0,0,0,0,0,0,0.3988,0.3989,0.3995,0.3995,0.3996,0.4001,0.4,0.4006,0.4004,0.4001,0.4004,0.4004,0.4009,0.401,0.4011,0.4017,0.4017,0.4015,0.4015,0.4015,0.4015,0,0,0,0,0,0,0,0.3987,0.3988,0.3996,0.3995,0.3996,0.3997,0.3998,0.4001,0.4005,0.4001,0.4002,0.4002,0.4009,0.4011,0.4012,0.4017,0.4015,0.4015,0.4015,0.4015,0.4026,0.4026,0,0,0,0,0,0,0.3986,0.3988,0.3996,0.3996,0.3992,0.3997,0.3998,0.4,0.4005,0.4006,0.4002,0.4002,0.401,0.4011,0.4012,0.4016,0.4015,0.4015,0.4016,0.4026,0.4026,0.4026,0,0,0,0,0,0,0.3986,0.3987,0.3995,0.3992,0.3993,0.3997,0.3999,0.4,0.4001,0.4006,0.4007,0.4003,0.401,0.4011,0.4015,0.4016,0.4016,0.4016,0.4025,0.4026,0.4026,0.4023,0,0,0,0,0,0,0.3986,0.3987,0.3988,0.3992,0.3993,0.3998,0.3999,0.4,0.4002,0.4002,0.4007,0.4008,0.401,0.4015,0.4016,0.4017,0.4016,0.4025,0.4025,0.4026,0.4023,0.4023,0.4023,0,0,0,0,0,0.3985,0.3987,0.3988,0.3989,0.3994,0.3998,0.3999,0.4002,0.4002,0.4003,0.4006,0.4008,0.4016,0.4015,0.4016,0.4017,0.4025,0.4025,0.4026,0.4023,0.4023,0.4023,0,0,0,0,0,0,0.3983,0.3988,0.3989,0.3991,0.3994,0.3999,0.4,0.4002,0.4005,0.4005,0.4008,0.401,0.4013,0.4016,0.4015,0.402,0.4021,0.4021,0.4018,0.4018,0.4018,0.4018,0.4017,0,0,0,0,0,0.3983,0.3985,0.3989,0.3991,0.3993,0.3996,0.3998,0.4,0.4003,0.4004,0.4008,0.4011,0.4014,0.4017,0.402,0.4023,0.4025,0.4025,0.4025,0.4025,0.4025,0.4027,0.4027,0.4026,0.4026,0.4026,0,0,0.3982,0.3985,0.3986,0.3991,0.3993,0.3996,0.3997,0.4,0.4002,0.4005,0.4008,0.4011,0.4015,0.4019,0.4021,0.4021,0.4026,0.4025,0.4025,0.4025,0.4027,0.4027,0.4028,0.4026,0.4026,0.4026,0,0,0.3983,0.3985,0.3987,0.3989,0.3993,0.3995,0.3996,0.4,0.4002,0.4005,0.4008,0.4011,0.4016,0.4019,0.4021,0.4023,0.4025,0.4024,0.4024,0.4026,0.4026,0.4026,0.4027,0.4027,0.4025,0.4025,0.4025,0,0.3982,0.3985,0.3988,0.3991,0.3993,0.3995,0.3997,0.4,0.4004,0.4006,0.4006,0.4014,0.4017,0.4021,0.4021,0.4023,0.4024,0.4024,0.4026,0.4026,0.4026,0.4027,0.4027,0.4024,0.4024,0.4024,0.4024,0,0.3984,0.3987,0.3988,0.3992,0.3994,0.3997,0.4,0.4002,0.4004,0.4006,0.401,0.4014,0.4018,0.4019,0.4021,0.4024,0.4024,0.4025,0.4026,0.4026,0.4027,0.4027,0.4024,0.4024,0.4024,0.4024,0,0,0.3983,0.3989,0.3989,0.3991,0.3995,0.3998,0.4,0.4004,0.4006,0.4009,0.4012,0.4017,0.4017,0.402,0.4022,0.4024,0.4026,0.4025,0.4025,0.4025,0.4029,0.4029,0.4029,0.4027,0.4027,0.4027,0.4029,0,0.3984,0.3989,0.3991,0.3995,0.3998,0.4,0.4003,0.4006,0.4008,0.4011,0.4014,0.4017,0.4018,0.402,0.4022,0.4025,0.4026,0.4025,0.403,0.403,0.4028,0.4029,0.4028,0.403,0.4029,0.4029,0.4029,0,0.3986,0.3989,0.3993,0.3997,0.3998,0.4,0.4004,0.4006,0.401,0.4012,0.4015,0.4017,0.402,0.4021,0.4026,0.4025,0.4027,0.4029,0.4029,0.4029,0.403,0.403,0.4031,0.4031,0.403,0.403,0.403,0,0.3985,0.399,0.3993,0.3995,0.3999,0.4001,0.4003,0.4007,0.4009,0.4012,0.4014,0.4018,0.402,0.4023,0.4027,0.4026,0.4031,0.4032,0.4033,0.4033,0.4034,0.4034,0.4035,0.4035,0.4035,0.4035,0.4035,0,0.3986,0.3988,0.3993,0.3994,0.3997,0.4,0.4003,0.4005,0.4009,0.4011,0.4014,0.4016,0.4021,0.4024,0.4027,0.4031,0.4032,0.4033,0.4034,0.4033,0.4033,0.4035,0.4035,0.4035,0.4035,0.4035,0.4035,0,0.3985,0.3988,0.3992,0.3996,0.3997,0.3999,0.4003,0.4005,0.4007,0.4011,0.4012,0.4016,0.402,0.4024,0.4029,0.4031,0.4035,0.4036,0.4033,0.4034,0.4035,0.4035,0.4037,0.4038,0.4037,0.4037,0.4037,0,0.3986,0.3988,0.3992,0.3994,0.3996,0.3999,0.4001,0.4004,0.4006,0.4011,0.4012,0.4016,0.402,0.4026,0.403,0.4034,0.4035,0.4036,0.4036,0.4035,0.4035,0.4035,0.4035,0.4036,0.4036,0.4036,0.4036,0,0.3986,0.3988,0.399,0.3994,0.3996,0.3999,0.4002,0.4003,0.4007,0.401,0.4014,0.4016,0.4022,0.4026,0.403,0.4033,0.4035,0.4036,0.4036,0.4035,0.4034,0.4035,0.4033,0.4036,0.4036,0.4036,0.4036,0.4036,0.3986,0.3988,0.3991,0.3994,0.3997,0.4,0.4002,0.4005,0.4008,0.4012,0.4014,0.4018,0.4022,0.4028,0.4031,0.4035,0.4035,0.4036,0.4036,0.4036,0.4036,0.4033,0.4035,0.4035,0.4035,0.4035,0.4035,0,0.3987,0.3989,0.3992,0.3996,0.3998,0.4,0.4003,0.4005,0.4009,0.4012,0.4015,0.402,0.4024,0.4028,0.4032,0.4034,0.4036,0.4036,0.4035,0.4036,0.4035,0.4034,0.4035,0.4035,0.4035,0.4035,0.4035,0.4035,0.3988,0.3991,0.3992,0.3997,0.3999,0.4003,0.4005,0.4007,0.401,0.4015,0.4018,0.4021,0.4025,0.4029,0.4033,0.4034,0.4036,0.4036,0.4037,0.4036,0.4036,0.4036,0.4035,0.4036,0.4036,0.4038,0.4038,0.4038]}]]